Flag for Germany

Past Weather in Allensbach, Baden-Württemberg, Germany — Yesterday and Last 2 Weeks

Now
70 °F

Sunny.


Feels Like: 70 °F
Forecast: 78 / 63 °F
Wind: 1 mph from North

Location: Friedrichshafen Airport
Current Time: Aug 13, 2020 at 8:43:57 am
Latest Report: Aug 13, 2020 at 8:20 am
Visibility: 10 mi
Pressure30.01 "Hg
Humidity: 78%
Dew Point: 63 °F
Location of AllensbachLocation

Past Weather in Allensbach — Graph

°F

Allensbach Temperature Yesterday

Maximum temperature yesterday: 90 °F (at 4:50 pm)
Minimum temperature yesterday: 64 °F (at 4:50 am)
Average temperature yesterday: 76 °F

High & Low Weather Summary for the Past Weeks

 TemperatureHumidityPressure
High91 °F (Jul 31, 4:20 pm)100% (Aug 2, 5:50 am)30.18 "Hg (Aug 2, 5:50 am)
Low48 °F (Aug 5, 2:50 am)4% (Jul 30, 4:20 am)29.83 "Hg (Aug 3, 3:20 pm)
Average70 °F73%30.05 "Hg
* Reported Jul 29 7:20 am — Aug 13 7:20 am, Allensbach. Weather by CustomWeather, © 2020

Note: Actual official high and low records may vary slightly from our data, if they occured in-between our weather recording intervals... More about our weather records

Allensbach Weather History for the Previous 24 Hours

Scroll right to see more
 ConditionsComfort  
Time TempWeatherWind HumidityBarometerVisibility
7:20 am
Thu, Aug 13
68 °FPartly sunny.2 mph83%29.98 "HgN/A
6:50 am68 °FBroken clouds.3 mph78%29.98 "HgN/A
6:20 am66 °FMostly cloudy.1 mph83%29.98 "HgN/A
5:50 am68 °FMostly cloudy.5 mph78%29.98 "HgN/A
5:20 am68 °FOvercast.5 mph73%29.95 "HgN/A
4:50 am66 °FOvercast.2 mph83%29.98 "HgN/A
4:20 am66 °FPassing clouds.2 mph83%29.98 "HgN/A
3:20 am70 °FOvercast.5 mph73%29.98 "HgN/A
2:50 am68 °FOvercast.5 mph78%29.98 "HgN/A
1:50 am68 °FPassing clouds.3 mph78%30.01 "HgN/A
1:20 am70 °FPassing clouds.3 mph78%30.01 "HgN/A
12:50 am72 °FClear.2 mph73%30.01 "HgN/A
12:20 am70 °FClear.2 mph83%30.01 "HgN/A
11:50 pm
Wed, Aug 12
70 °FPassing clouds.3 mph83%30.01 "HgN/A
11:20 pm72 °FOvercast.2 mph73%30.01 "HgN/A
10:50 pm73 °FPartly cloudy.2 mph78%30.01 "HgN/A
10:20 pm75 °FPassing clouds.3 mph74%30.01 "HgN/A
9:50 pm73 °FPassing clouds.5 mph83%29.98 "HgN/A
9:20 pm73 °FClear.3 mph83%29.98 "Hg10 mi
8:50 pm79 °FClear.2 mph70%29.98 "Hg10 mi
8:20 pm77 °FSunny.1 mph69%29.98 "Hg10 mi
7:50 pm81 °FSunny.No wind62%29.98 "Hg10 mi
7:20 pm84 °FSunny.1 mph58%29.95 "Hg10 mi
6:50 pm86 °FPassing clouds.2 mph55%29.95 "HgN/A
6:20 pm88 °FPassing clouds.2 mph46%29.98 "HgN/A
5:50 pm88 °FPassing clouds.5 mph49%29.98 "HgN/A
5:20 pm86 °FSunny.5 mph52%29.98 "Hg10 mi
4:50 pm90 °FPassing clouds.2 mph43%29.98 "HgN/A
4:20 pm88 °FPassing clouds.2 mph46%29.98 "HgN/A
3:50 pm86 °FPassing clouds.7 mph49%29.98 "HgN/A
3:20 pm86 °FPassing clouds.6 mph49%30.01 "HgN/A
2:50 pm88 °FPassing clouds.3 mph46%30.01 "HgN/A
2:20 pm88 °FPassing clouds.2 mph46%30.01 "HgN/A
1:50 pm86 °FSunny.2 mph52%30.01 "Hg10 mi
1:20 pm84 °FPassing clouds.3 mph51%30.04 "HgN/A
12:50 pm84 °FSunny.3 mph51%30.04 "Hg10 mi
12:20 pm82 °FSunny.3 mph51%30.04 "Hg10 mi
11:50 am81 °FSunny.3 mph54%30.04 "Hg10 mi
11:20 am79 °FPassing clouds.6 mph65%30.04 "HgN/A
10:50 am77 °FPassing clouds.5 mph61%30.04 "HgN/A
10:20 am75 °FPassing clouds.6 mph61%30.04 "HgN/A
9:20 am73 °FSunny.5 mph65%30.04 "HgN/A
8:50 am73 °FSunny.1 mph69%30.04 "Hg10 mi
8:20 am72 °FPassing clouds.3 mph78%30.04 "HgN/A
Weather by CustomWeather, © 2020

See weather overview